Weather History for KLOU - January, 2008

Change the Weather History Date:

Friday, January 18, 2008

  Actual Average Record
Temperature  
Mean Temperature 30 °F 34 °F  
Max Temperature 34 °F 42 °F 71 °F (1949)
Min Temperature 26 °F 26 °F -3 °F (1977)
Degree Days  
Heating Degree Days 35 31  
Month to date heating degree days 552  
Since 1 July heating degree days 2216  
Cooling Degree Days 0 0  
Month to date cooling degree days 0  
Year to date cooling degree days 0  
Moisture  
Dew Point 16 °F    
Average Humidity 59    
Maximum Humidity 72    
Minimum Humidity 40    
Precipitation  
Precipitation 0.00 in 0.10 in 0.95 in (1975)
Month to date precipitation 2.14  
Year to date precipitation 2.14  
Sea Level Pressure  
Sea Level Pressure 30.17 in    
Wind  
Wind Speed 8 mph (West)    
Max Wind Speed 16 mph    
Max Gust Speed -    
Visibility 10 miles    
Events Snow    
T = Trace of Precipitation, MM = Missing Value Source: NWS Daily Summary

Daily Weather History Graph

Daily Weather History Graph

Search for Another Location

Airport or City:

Trip Planner

Search our weather history database for the weather conditions in past years. The results will help you decide how hot, cold, wet, or windy it might be!

Date:

Astronomy

Jan. 18, 2008 Rise Set
Actual Time 7:57 AM EST 5:49 PM EST
Civil Twilight 7:28 AM EST 6:17 PM EST
Nautical Twilight 6:55 AM EST 6:50 PM EST
Astronomical Twilight 6:24 AM EST 7:21 PM EST
Moon 1:39 PM EST (1/18) 4:15 AM EST (1/18)
Length of Visible Light 10h 49m
Length of Day
9h 52m
Waxing Gibbous, 81% of the Moon is Illuminated
Jan 18
Waxing Gibbous
Jan 22
Full
Jan 30
Last Quarter
Feb 6
New
Feb 13
First Quarter

Hourly Weather History & Observations

Time (EST) Temp. Windchill Dew Point Humidity Pressure Visibility Wind Dir Wind Speed Gust Speed Precip Events Conditions
12:53 AM 30.0 °F 18.7 °F 21.9 °F 72% 30.06 in 10.0 mi WNW 16.1 mph - N/A   Overcast
1:53 AM 28.9 °F 18.6 °F 21.0 °F 72% 30.07 in 10.0 mi WNW 12.7 mph - N/A   Overcast
2:53 AM 28.9 °F 21.1 °F 19.9 °F 69% 30.09 in 10.0 mi WNW 8.1 mph - N/A   Overcast
3:53 AM 28.9 °F 21.1 °F 19.0 °F 67% 30.11 in 10.0 mi WNW 8.1 mph - N/A   Overcast
4:53 AM 28.0 °F 17.5 °F 18.0 °F 66% 30.13 in 10.0 mi NW 12.7 mph - N/A   Overcast
5:53 AM 27.0 °F 18.0 °F 17.1 °F 66% 30.16 in 10.0 mi WNW 9.2 mph - N/A   Overcast
6:53 AM 27.0 °F 18.7 °F 16.0 °F 63% 30.17 in 10.0 mi NW 8.1 mph - N/A   Overcast
7:53 AM 27.0 °F 19.5 °F 18.0 °F 69% 30.18 in 8.0 mi WNW 6.9 mph - 0.00 in Snow Light Snow
8:53 AM 27.0 °F 18.7 °F 16.0 °F 63% 30.19 in 10.0 mi West 8.1 mph - 0.00 in   Overcast
9:32 AM 26.6 °F 19.1 °F 15.8 °F 64% 30.19 in 10.0 mi West 6.9 mph - N/A   Overcast
9:53 AM 27.0 °F 19.5 °F 15.1 °F 61% 30.21 in 10.0 mi WNW 6.9 mph - N/A   Overcast
10:08 AM 26.6 °F 19.1 °F 15.8 °F 64% 30.20 in 10.0 mi WNW 6.9 mph - N/A   Overcast
10:35 AM 26.6 °F 21.2 °F 15.8 °F 64% 30.21 in 10.0 mi NW 4.6 mph - N/A   Overcast
10:53 AM 27.0 °F - 16.0 °F 63% 30.23 in 10.0 mi Calm Calm - N/A   Overcast
11:08 AM 26.6 °F - 17.6 °F 69% 30.21 in 10.0 mi Calm Calm - N/A   Overcast
11:31 AM 28.4 °F 24.6 °F 17.6 °F 64% 30.21 in 10.0 mi Variable 3.5 mph - N/A   Overcast
11:53 AM 28.0 °F 20.8 °F 16.0 °F 61% 30.22 in 10.0 mi SSW 6.9 mph - N/A   Overcast
12:28 PM 30.2 °F 23.4 °F 15.8 °F 55% 30.19 in 10.0 mi Variable 6.9 mph - N/A   Scattered Clouds
12:53 PM 30.9 °F 24.3 °F 17.1 °F 57% 30.21 in 10.0 mi SW 6.9 mph - N/A   Scattered Clouds
1:53 PM 32.0 °F 23.6 °F 16.0 °F 52% 30.18 in 10.0 mi SSW 10.4 mph - N/A   Clear
2:53 PM 34.0 °F 28.8 °F 16.0 °F 48% 30.14 in 10.0 mi West 5.8 mph - N/A   Clear
3:53 PM 34.0 °F 27.2 °F 14.0 °F 44% 30.14 in 10.0 mi WSW 8.1 mph - N/A   Clear
4:53 PM 34.0 °F 28.0 °F 12.0 °F 40% 30.14 in 10.0 mi SW 6.9 mph - N/A   Clear
5:53 PM 33.1 °F 30.0 °F 12.9 °F 43% 30.15 in 10.0 mi SSW 3.5 mph - N/A   Clear
6:53 PM 32.0 °F - 14.0 °F 48% 30.17 in 10.0 mi Calm Calm - N/A   Clear
7:53 PM 30.9 °F - 14.0 °F 50% 30.17 in 10.0 mi Calm Calm - N/A   Clear
8:53 PM 30.0 °F 26.5 °F 15.1 °F 54% 30.19 in 10.0 mi South 3.5 mph - N/A   Clear
9:53 PM 28.9 °F - 14.0 °F 54% 30.19 in 10.0 mi Calm Calm - N/A   Clear
10:53 PM 28.9 °F 25.2 °F 15.1 °F 56% 30.19 in 10.0 mi South 3.5 mph - N/A   Clear
11:53 PM 28.0 °F - 15.1 °F 58% 30.21 in 10.0 mi Calm Calm - N/A   Clear